Flag for Germany Weather past 2 weeks in Ahrensburg, Schleswig-Holstein, Germany

Now
66 °F

Partly sunny.


Feels Like: 66 °F
Forecast: 55 / 72 °F
Wind: 9 mph from Northeast

Location: Hamburg-Fuhlsbuettel

Current Time: Sep 19, 2014 at 8:59:17 PM

Latest Report: Sep 19, 2014 at 8:20 PM


Visibility: N/A

Pressure: 29.92 "Hg

Humidity: 78%

Dew point: 59 °F

Location of AhrensburgLocation

Historic Weather in Ahrensburg — Graph

°F

Ahrensburg temperature yesterday

Maximum temperature yesterday: 73 °F (at 2:20 PM)
Minimum temperature yesterday: 55 °F (at 4:50 AM)
Average temperature yesterday: 64 °F

Past Weeks' High & Low Weather Summary

 TemperatureHumidityPressure
High79 °F (Sep 5, 3:50 PM)100% (Sep 6, 11:20 PM)30.24 "Hg (Sep 6, 11:20 PM)
Low48 °F (Sep 12, 5:20 AM)49% (Sep 8, 1:50 PM)29.86 "Hg (Sep 6, 2:50 PM)
Average63 °F83%30.04 "Hg
* Reported Sep 4 7:20 PM — Sep 19 7:50 PM, Ahrensburg, Weather by CustomWeather, © 2014

Note: Actual official high and low records may vary slightly from our data, if they occured in-between our weather recording intervals... More about our weather records

Advertising

Ahrensburg weather history for previous 24 hours

 ConditionsComfort  
Time TempWeatherWind HumidityBarometerVisibility
7:50 PM
Sep 19
68 °FPassing clouds.8 mph78%29.89 "HgN/A
7:20 PM70 °FPassing clouds.8 mph73%29.89 "HgN/A
6:50 PM73 °FPassing clouds.6 mph57%29.89 "HgN/A
6:20 PM73 °FPassing clouds.8 mph57%29.89 "HgN/A
5:50 PM73 °FPassing clouds.7 mph61%29.89 "HgN/A
5:20 PM73 °FPassing clouds.6 mph57%29.89 "HgN/A
4:50 PM75 °FPassing clouds.7 mph54%29.89 "HgN/A
4:20 PM75 °FPassing clouds.8 mph54%29.89 "HgN/A
3:50 PM73 °FPassing clouds.6 mph57%29.89 "HgN/A
3:20 PM75 °FPassing clouds.2 mph54%29.89 "HgN/A
2:50 PM73 °FScattered clouds.6 mph61%29.89 "HgN/A
2:20 PM73 °FPassing clouds.6 mph61%29.89 "HgN/A
1:50 PM73 °FPassing clouds.6 mph57%29.89 "HgN/A
1:20 PM73 °FPassing clouds.6 mph57%29.89 "HgN/A
12:50 PM72 °FPassing clouds.7 mph61%29.92 "HgN/A
12:20 PM72 °FPassing clouds.5 mph65%29.92 "HgN/A
11:50 AM70 °FPassing clouds.6 mph69%29.92 "HgN/A
11:20 AM68 °FPassing clouds.7 mph73%29.92 "HgN/A
10:50 AM66 °FPassing clouds.6 mph78%29.92 "HgN/A
10:20 AM64 °FPassing clouds.6 mph78%29.92 "HgN/A
9:50 AM63 °FPassing clouds.5 mph83%29.92 "HgN/A
9:20 AM61 °FSunny.6 mph88%29.92 "Hg10 mi
8:50 AM61 °FSunny.6 mph83%29.92 "Hg10 mi
8:20 AM59 °FSunny.5 mph88%29.92 "Hg10 mi
7:50 AM57 °FPassing clouds.3 mph88%29.92 "HgN/A
7:20 AM57 °FClear.3 mph88%29.92 "Hg10 mi
6:50 AM59 °FPassing clouds.3 mph88%29.89 "HgN/A
6:20 AM59 °FPassing clouds.3 mph88%29.89 "HgN/A
5:50 AM57 °FPassing clouds.3 mph94%29.89 "HgN/A
5:20 AM57 °FPassing clouds.5 mph94%29.89 "HgN/A
4:50 AM57 °FClear.3 mph94%29.89 "Hg10 mi
4:20 AM57 °FClear.2 mph88%29.92 "Hg10 mi
3:50 AM57 °FClear.3 mph94%29.92 "Hg10 mi
3:20 AM57 °FPassing clouds.3 mph94%29.92 "HgN/A
2:50 AM57 °FPassing clouds.5 mph88%29.92 "HgN/A
2:20 AM59 °FPassing clouds.2 mph88%29.92 "HgN/A
1:50 AM59 °FPassing clouds.3 mph88%29.92 "HgN/A
1:20 AM59 °FPassing clouds.6 mph88%29.92 "HgN/A
12:50 AM59 °FClear.5 mph88%29.92 "Hg10 mi
12:20 AM59 °FClear.3 mph88%29.92 "Hg10 mi
11:50 PM
Sep 18
61 °FClear.6 mph83%29.92 "Hg10 mi
11:20 PM59 °FClear.8 mph88%29.92 "Hg10 mi
10:50 PM59 °FClear.7 mph88%29.92 "Hg10 mi
10:20 PM61 °FClear.8 mph83%29.92 "Hg10 mi
9:20 PM63 °FPassing clouds.6 mph77%29.92 "HgN/A
8:50 PM64 °FPassing clouds.6 mph73%29.92 "HgN/A
8:20 PM66 °FScattered clouds.6 mph68%29.92 "HgN/A
Weather by CustomWeather, © 2014

See weather overviewHow to use our weather pages